Flag for Burundi Weather past 2 weeks in Bujumbura, Burundi

Now
70 °F

Passing clouds.


Feels Like: 70 °F
Forecast: 69 / 87 °F
Wind: 7 mph from Northwest

Location: Kisumu Airport

Current Time: Oct 25, 2014 at 11:35:17 PM

Latest Report: Oct 25, 2014 at 8:00 PM


Visibility: N/A

Pressure: 30.04 "Hg

Humidity: 83%

Dew point: 64 °F

Location of BujumburaLocation

Historic Weather in Bujumbura — Graph

°F

Bujumbura temperature yesterday

Maximum temperature yesterday: 86 °F (at 3:00 PM)
Minimum temperature yesterday: 66 °F (at 5:00 AM)
Average temperature yesterday: 78 °F

Past Weeks' High & Low Weather Summary

 TemperatureHumidityPressure
High90 °F (Oct 11, 3:00 PM)100% (Oct 21, 4:00 AM)30.18 "Hg (Oct 21, 4:00 AM)
Low64 °F (Oct 12, 6:00 AM)33% (Oct 11, 3:00 PM)29.89 "Hg (Oct 24, 4:00 PM)
Average76 °F70%30.04 "Hg
* Reported Oct 10 9:00 PM — Oct 25 8:00 PM, Bujumbura, Weather by CustomWeather, © 2014

Note: Actual official high and low records may vary slightly from our data, if they occured in-between our weather recording intervals... More about our weather records

Advertising

Bujumbura weather history for previous 24 hours

 ConditionsComfort  
Time TempWeatherWind HumidityBarometerVisibility
8:00 PM
Oct 25
70 °FPassing clouds.7 mph83%30.04 "HgN/A
7:00 PM73 °FPassing clouds.6 mph74%30.01 "HgN/A
6:00 PM73 °FPassing clouds.12 mph74%29.98 "HgN/A
5:00 PM75 °FPartly sunny.13 mph69%29.98 "HgN/A
4:00 PM75 °FPassing clouds.14 mph61%29.95 "HgN/A
3:00 PM79 °FBroken clouds.21 mph65%29.95 "HgN/A
2:00 PM82 °FScattered clouds.14 mph55%30.01 "HgN/A
1:00 PM82 °FScattered clouds.14 mph58%30.01 "HgN/A
12:00 PM81 °FScattered clouds.7 mph62%30.04 "HgN/A
11:00 AM81 °FScattered clouds.6 mph62%30.07 "HgN/A
10:00 AM77 °FScattered clouds.6 mph65%30.04 "HgN/A
9:00 AM77 °FBroken clouds.6 mph69%30.09 "HgN/A
8:00 AM73 °FBroken clouds.No wind69%30.09 "HgN/A
7:00 AM68 °FScattered clouds.7 mph88%30.09 "HgN/A
6:00 AM64 °FSunny.No wind94%30.07 "Hg10 mi
5:00 AM64 °FClear.No wind94%30.07 "Hg10 mi
Weather by CustomWeather, © 2014

See weather overviewHow to use our weather pages